TimeCDT,TemperatureF,Dew PointF,Humidity,Sea Level PressureIn,VisibilityMPH,Wind Direction,Wind SpeedMPH,Gust SpeedMPH,PrecipitationIn,Events,Conditions,WindDirDegrees,DateUTC
12:07 AM,71.6,69.8,94,30.07,10.0,Calm,Calm,-,N/A,,Mostly Cloudy,0,2013-07-07 05:07:00
12:36 AM,71.6,69.8,94,30.08,10.0,Calm,Calm,-,N/A,,Overcast,0,2013-07-07 05:36:00
12:54 AM,72.0,68.0,87,30.06,10.0,South,3.5,-,N/A,,Overcast,170,2013-07-07 05:54:00
1:14 AM,71.6,68.0,88,30.07,10.0,Calm,Calm,-,N/A,,Scattered Clouds,0,2013-07-07 06:14:00
1:54 AM,70.0,66.9,90,30.04,10.0,SSE,3.5,-,N/A,,Partly Cloudy,160,2013-07-07 06:54:00
2:54 AM,68.0,66.0,93,30.04,10.0,SSE,4.6,-,N/A,,Clear,150,2013-07-07 07:54:00
3:54 AM,68.0,66.0,93,30.05,10.0,SSE,3.5,-,N/A,,Clear,160,2013-07-07 08:54:00
4:54 AM,66.0,64.0,93,30.06,10.0,South,3.5,-,N/A,,Clear,190,2013-07-07 09:54:00
5:54 AM,66.0,64.0,93,30.08,10.0,South,3.5,-,N/A,,Clear,170,2013-07-07 10:54:00
6:46 AM,66.2,64.4,94,30.09,10.0,South,3.5,-,N/A,,Partly Cloudy,190,2013-07-07 11:46:00
6:54 AM,66.9,64.0,90,30.09,10.0,SSW,4.6,-,N/A,,Partly Cloudy,200,2013-07-07 11:54:00
7:46 AM,69.8,64.4,83,30.12,10.0,Calm,Calm,-,N/A,,Mostly Cloudy,0,2013-07-07 12:46:00
7:54 AM,68.0,64.9,90,30.11,10.0,Calm,Calm,-,N/A,,Mostly Cloudy,0,2013-07-07 12:54:00
8:54 AM,71.1,66.9,87,30.11,10.0,SSW,5.8,-,N/A,,Overcast,210,2013-07-07 13:54:00
9:54 AM,73.0,68.0,84,30.11,10.0,Calm,Calm,-,N/A,,Overcast,0,2013-07-07 14:54:00
10:54 AM,75.9,69.1,79,30.11,10.0,Calm,Calm,-,N/A,,Mostly Cloudy,0,2013-07-07 15:54:00
11:03 AM,75.2,69.8,83,30.12,10.0,SSW,4.6,-,N/A,,Scattered Clouds,210,2013-07-07 16:03:00
11:54 AM,80.1,69.1,69,30.10,10.0,West,3.5,-,N/A,,Partly Cloudy,280,2013-07-07 16:54:00
12:54 PM,82.0,70.0,67,30.09,10.0,SE,4.6,-,N/A,,Partly Cloudy,140,2013-07-07 17:54:00
1:54 PM,84.0,69.1,61,30.08,10.0,SSE,5.8,-,N/A,,Clear,150,2013-07-07 18:54:00
2:54 PM,86.0,66.9,53,30.07,10.0,WSW,8.1,-,N/A,,Scattered Clouds,240,2013-07-07 19:54:00
3:54 PM,86.0,64.9,49,30.05,10.0,SSW,5.8,-,N/A,,Clear,200,2013-07-07 20:54:00
4:54 PM,86.0,68.0,55,30.04,10.0,SSW,8.1,-,N/A,,Clear,210,2013-07-07 21:54:00
5:54 PM,84.9,66.0,53,30.04,10.0,SW,9.2,-,N/A,,Clear,230,2013-07-07 22:54:00
6:54 PM,82.9,66.9,58,30.04,10.0,SW,6.9,-,N/A,,Clear,220,2013-07-07 23:54:00
7:54 PM,82.0,66.0,58,30.05,10.0,South,5.8,-,N/A,,Clear,180,2013-07-08 00:54:00
8:54 PM,80.1,68.0,67,30.06,10.0,South,3.5,-,N/A,,Clear,170,2013-07-08 01:54:00
9:54 PM,77.0,68.0,74,30.09,10.0,Calm,Calm,-,N/A,,Clear,0,2013-07-08 02:54:00
10:54 PM,75.9,68.0,76,30.09,10.0,Calm,Calm,-,N/A,,Clear,0,2013-07-08 03:54:00
11:54 PM,73.9,69.1,85,30.09,10.0,South,3.5,-,N/A,,Clear,190,2013-07-08 04:54:00